Regional Weather Roundup
Issued by NWS

Home | Current Version | Previous Version | Graphics & Text | Print | Product List | Glossary On
Versions: 1 2 3 4 5 6 7 8 9 10 11 12 13 14 15 16 17 18 19 20 21 22 23 24 25 26 27 28 29 30 31 32 33 34 35 36 37 38 39 40 41 42 43 44 45 46 47 48 49 50
000
ASUS45 KABQ 300810
RWRNM
NEW MEXICO REGIONAL WEATHER ROUNDUP
NATIONAL WEATHER SERVICE ALBUQUERQUE NM
200 AM MDT THU JUL 30 2015

NOTE: "FAIR" MEANS FEW OR NO CLOUDS BELOW 12,000 FEET AGL WITH NO
       SIGNIFICANT WEATHER OR OBSTRUCTIONS TO VISION.

      THIS PRODUCT IS RELEASED AS TWO VERSIONS.  ONE VERSION NEAR
      THE TOP OF THE HOUR CONTAINING PRELIMINARY DATA FROM ALBUQUERQUE
      AND OTHER STATIONS.  A FINAL VERSION WITH ADDITIONAL DATA IS
      ISSUED ABOUT 10 MINUTES AFTER THE HOUR.

NMZ501-503-504-510>518-300900-
NORTHWEST PLATEAU/NORTHCENTRAL MOUNTAINS

CITY           SKY/WX    TMP DP  RH WIND       PRES   REMARKS
FARMINGTON     CLEAR     65  53  65 E5        30.33S
LOS ALAMOS     LGT RAIN  58  58  99 W6        30.50F
SANTA FE       LGT RAIN  60  57  89 NW3       30.43F
TAOS           CLOUDY    57  46  67 CALM      30.50S
ANGEL FIRE     CLOUDY    53  52  96 CALM      30.56S

$$
NMZ402-403-502-505>509-300900-
WESTCENTRAL MOUNTAINS/SOUTHWEST MOUNTAINS

CITY           SKY/WX    TMP DP  RH WIND       PRES   REMARKS
GALLUP         LGT RAIN  61  56  83 NE3       30.38F
GRANTS         DRIZZLE   61  59  92 S12       30.43S
SILVER CITY    LGT RAIN  64  59  82 N6        30.36F

$$
NMZ407-409-411-412-300900-
SOUTHERN DESERTS

CITY           SKY/WX    TMP DP  RH WIND       PRES   REMARKS
LORDSBURG      FAIR      64  64 100 E8        30.25F
DEMING         CLOUDY    69  62  78 NE8       30.25F
LAS CRUCES     CLOUDY    66  64  94 NE10      30.25F
HOLLOMAN AFB   MOCLDY    71  61  68 NW13      30.23R
ALAMOGORDO     MOCLDY    68  63  83 N13       30.26S
T OR C         LGT RAIN  65  62  90 NW10      30.32F

$$
NMZ519>523-300900-
CENTRAL VALLEYS/CENTRAL HIGHLANDS

CITY           SKY/WX    TMP DP  RH WIND       PRES   REMARKS
ALBUQUERQUE    CLOUDY    67  57  70 E26G33    30.34F
DOUBLE EAGLE   DRIZZLE   62  60  93 N8        30.40S
MORIARTY ARPT    N/A     60  56  88 NE6       30.44S
CLINES CORNERS LGT RAIN  57  55  93 E15G23    30.46F
BELEN          LGT RAIN  66  62  87 CALM      30.35S
SOCORRO        RAIN      65  62  90 CALM      30.35S

$$
NMZ524>526-539-540-300900-
SOUTHCENTRAL MOUNTAINS

CITY           SKY/WX    TMP DP  RH WIND       PRES   REMARKS
RUIDOSO          N/A    N/A N/A N/A MISG        N/A

$$
NMZ527>531-300900-
NORTHEAST HIGHLANDS/NORTHEAST PLAINS

CITY           SKY/WX    TMP DP  RH WIND       PRES   REMARKS
LAS VEGAS      LGT RAIN  57  55  93 CALM      30.48F
RATON          CLOUDY    58  57  97 CALM      30.42F
CLAYTON        CLOUDY    68  66  93 E3        30.34S

$$
NMZ532>537-300900-
EASTCENTRAL PLAINS

CITY           SKY/WX    TMP DP  RH WIND       PRES   REMARKS
TUCUMCARI      TSTM      66  63  90 W18       30.32R
CANNON AFB     CLOUDY    72  65  79 N13       30.26R
CLOVIS AIRPORT MOCLDY    70  63  78 NE3       30.27R

$$
NMZ028-029-538-300900-
SOUTHEAST PLAINS

CITY           SKY/WX    TMP DP  RH WIND       PRES   REMARKS
ROSWELL        CLOUDY    73  65  75 N18G25    30.21R
ARTESIA        MOCLDY    77  61  57 N13       30.18R
CARLSBAD       CLEAR     74  60  61 S3        30.13S
HOBBS          PTCLDY    72  66  83 CALM      30.19S


$$



USA.gov is the U.S. government's official web portal to all federal, state and local government web resources and services.